Tracking 19827 objects as of 21-Aug-2019
HD Live streaming from Space Station
objects crossing your sky now

METEOR 2-17 DEB

Track METEOR 2-17 DEB now!
10-day predictions


NORAD ID: 31401
Int'l Code: 1988-005W
Perigee: 898.2 km
Apogee: 918.9 km
Inclination: 82.5 °
Period: 103.0 minutes
Semi major axis: 7279 km
RCS: 0.0104 m2 (small)
Launch date: January 30, 1988
Source: Commonwealth of Independent States (former USSR) (CIS)
Launch site: PLESETSK MISSILE AND SPACE COMPLEX (PKMTR)

Note: This is SATELLITE DEBRIS
aabbcc
Your satellite tracking list
Your tracking list is empty




NASA's NSSDC Master Catalog

Two Line Element Set (TLE):
1 31401U 88005W   19232.36090584  .00000769  00000-0  53295-3 0  9991
2 31401  82.5323 111.5026 0014219 119.5048 240.7540 13.97797339653289
Source of the keplerian elements: AFSPC